Time,TemperatureF,DewpointF,PressureIn,WindDirection,WindDirectionDegrees,WindSpeedMPH,WindSpeedGustMPH,Humidity,HourlyPrecipIn,Conditions,Clouds,dailyrainin,SoftwareType,DateUTC
2013-10-22 00:13:00,36.0,-99.9,29.74,West,260,11.0,20.0,-999,-99.99,,,-99.99,,2013-10-22 05:13:00,
2013-10-22 00:23:00,36.0,-99.9,29.74,West,260,11.0,20.0,-999,-99.99,,,-99.99,,2013-10-22 05:23:00,
2013-10-22 00:34:00,36.0,-99.9,29.74,West,260,11.0,20.0,-999,-99.99,,,-99.99,,2013-10-22 05:34:00,
2013-10-22 00:40:00,37.0,-99.9,29.73,West,270,9.0,21.0,-999,-99.99,,,-99.99,,2013-10-22 05:40:00,
2013-10-22 01:12:00,37.0,-99.9,29.73,West,270,9.0,21.0,-999,-99.99,,,-99.99,,2013-10-22 06:12:00,
2013-10-22 01:22:00,37.0,-99.9,29.73,West,270,9.0,21.0,-999,-99.99,,,-99.99,,2013-10-22 06:22:00,
2013-10-22 01:33:00,37.0,-99.9,29.73,West,270,9.0,21.0,-999,-99.99,,,-99.99,,2013-10-22 06:33:00,
2013-10-22 01:40:00,38.0,-99.9,29.72,West,260,13.0,26.0,-999,-99.99,,,-99.99,,2013-10-22 06:40:00,
2013-10-22 02:12:00,38.0,-99.9,29.72,West,260,13.0,26.0,-999,-99.99,,,-99.99,,2013-10-22 07:12:00,
2013-10-22 02:23:00,38.0,-99.9,29.72,West,260,13.0,26.0,-999,-99.99,,,-99.99,,2013-10-22 07:23:00,
2013-10-22 02:32:00,38.0,-99.9,29.72,West,260,13.0,26.0,-999,-99.99,,,-99.99,,2013-10-22 07:32:00,
2013-10-22 03:22:00,39.0,-99.9,29.72,West,270,13.0,28.0,-999,-99.99,,,-99.99,,2013-10-22 08:22:00,
2013-10-22 03:32:00,39.0,-99.9,29.72,West,270,13.0,28.0,-999,-99.99,,,-99.99,,2013-10-22 08:32:00,
2013-10-22 03:42:00,39.0,-99.9,29.72,West,270,13.0,28.0,-999,-99.99,,,-99.99,,2013-10-22 08:42:00,
2013-10-22 03:52:00,39.0,-99.9,29.72,West,270,13.0,28.0,-999,-99.99,,,-99.99,,2013-10-22 08:52:00,
2013-10-22 04:11:00,39.0,-99.9,29.72,West,280,11.0,21.0,-999,-99.99,,,-99.99,,2013-10-22 09:11:00,
2013-10-22 04:40:00,39.0,-99.9,29.75,West,280,13.0,29.0,-999,-99.99,,,-99.99,,2013-10-22 09:40:00,
2013-10-22 04:43:00,39.0,-99.9,29.73,West,270,13.0,28.0,-999,-99.99,,,-99.99,,2013-10-22 09:43:00,
2013-10-22 04:54:00,39.0,-99.9,29.73,West,270,13.0,28.0,-999,-99.99,,,-99.99,,2013-10-22 09:54:00,
2013-10-22 05:13:00,39.0,-99.9,29.75,West,280,13.0,29.0,-999,-99.99,,,-99.99,,2013-10-22 10:13:00,
2013-10-22 05:23:00,39.0,-99.9,29.75,West,280,13.0,29.0,-999,-99.99,,,-99.99,,2013-10-22 10:23:00,
2013-10-22 05:33:00,39.0,-99.9,29.75,West,280,13.0,29.0,-999,-99.99,,,-99.99,,2013-10-22 10:33:00,
2013-10-22 05:53:00,40.0,-99.9,29.77,WNW,300,18.0,29.0,-999,-99.99,,,-99.99,,2013-10-22 10:53:00,
2013-10-22 06:22:00,40.0,-99.9,29.77,WNW,300,18.0,29.0,-999,-99.99,,,-99.99,,2013-10-22 11:22:00,
2013-10-22 06:33:00,40.0,-99.9,29.77,WNW,300,18.0,29.0,-999,-99.99,,,-99.99,,2013-10-22 11:33:00,
2013-10-22 06:42:00,40.0,-99.9,29.77,WNW,300,18.0,29.0,-999,-99.99,,,-99.99,,2013-10-22 11:42:00,
2013-10-22 07:11:00,39.0,-99.9,29.78,WNW,300,21.0,28.0,-999,-99.99,,,-99.99,,2013-10-22 12:11:00,
2013-10-22 07:22:00,39.0,-99.9,29.78,WNW,300,21.0,28.0,-999,-99.99,,,-99.99,,2013-10-22 12:22:00,
2013-10-22 07:32:00,39.0,-99.9,29.78,WNW,300,21.0,28.0,-999,-99.99,,,-99.99,,2013-10-22 12:32:00,
2013-10-22 07:40:00,40.0,-99.9,29.80,WNW,300,14.0,28.0,-999,-99.99,,,-99.99,,2013-10-22 12:40:00,
2013-10-22 07:52:00,40.0,-99.9,29.80,WNW,300,16.0,-999.0,-999,-99.99,,,-99.99,,2013-10-22 12:52:00,
2013-10-22 08:12:00,40.0,-99.9,29.80,WNW,300,14.0,28.0,-999,-99.99,,,-99.99,,2013-10-22 13:12:00,
2013-10-22 08:22:00,40.0,-99.9,29.80,WNW,300,14.0,28.0,-999,-99.99,,,-99.99,,2013-10-22 13:22:00,
2013-10-22 08:32:00,40.0,-99.9,29.80,WNW,300,14.0,28.0,-999,-99.99,,,-99.99,,2013-10-22 13:32:00,
2013-10-22 08:40:00,40.0,-99.9,29.83,WNW,300,18.0,25.0,-999,-99.99,,,-99.99,,2013-10-22 13:40:00,
2013-10-22 09:12:00,40.0,-99.9,29.83,WNW,300,18.0,25.0,-999,-99.99,,,-99.99,,2013-10-22 14:12:00,
2013-10-22 09:22:00,40.0,-99.9,29.83,WNW,300,18.0,25.0,-999,-99.99,,,-99.99,,2013-10-22 14:22:00,
2013-10-22 09:32:00,40.0,-99.9,29.83,WNW,300,18.0,25.0,-999,-99.99,,,-99.99,,2013-10-22 14:32:00,
2013-10-22 09:40:00,41.0,-99.9,29.84,NW,310,16.0,24.0,-999,-99.99,,,-99.99,,2013-10-22 14:40:00,
2013-10-22 10:12:00,41.0,-99.9,29.84,NW,310,16.0,24.0,-999,-99.99,,,-99.99,,2013-10-22 15:12:00,
2013-10-22 10:22:00,41.0,-99.9,29.84,NW,310,16.0,24.0,-999,-99.99,,,-99.99,,2013-10-22 15:22:00,
2013-10-22 10:33:00,41.0,-99.9,29.84,NW,310,16.0,24.0,-999,-99.99,,,-99.99,,2013-10-22 15:33:00,
2013-10-22 11:40:00,43.0,-99.9,29.85,NW,310,17.0,24.0,-999,-99.99,,,-99.99,,2013-10-22 16:40:00,
2013-10-22 12:12:00,43.0,-99.9,29.85,NW,310,17.0,24.0,-999,-99.99,,,-99.99,,2013-10-22 17:12:00,
2013-10-22 12:22:00,43.0,-99.9,29.85,NW,310,17.0,24.0,-999,-99.99,,,-99.99,,2013-10-22 17:22:00,
2013-10-22 12:34:00,43.0,-99.9,29.85,NW,310,17.0,24.0,-999,-99.99,,,-99.99,,2013-10-22 17:34:00,
2013-10-22 12:40:00,44.0,-99.9,29.85,NW,310,17.0,23.0,-999,-99.99,,,-99.99,,2013-10-22 17:40:00,
2013-10-22 13:12:00,44.0,-99.9,29.85,NW,310,17.0,23.0,-999,-99.99,,,-99.99,,2013-10-22 18:12:00,
2013-10-22 13:22:00,44.0,-99.9,29.85,NW,310,17.0,23.0,-999,-99.99,,,-99.99,,2013-10-22 18:22:00,
2013-10-22 13:32:00,44.0,-99.9,29.85,NW,310,17.0,23.0,-999,-99.99,,,-99.99,,2013-10-22 18:32:00,
2013-10-22 13:40:00,45.0,-99.9,29.84,NW,320,14.0,21.0,-999,-99.99,,,-99.99,,2013-10-22 18:40:00,
2013-10-22 14:12:00,45.0,-99.9,29.84,NW,320,14.0,21.0,-999,-99.99,,,-99.99,,2013-10-22 19:12:00,
2013-10-22 14:22:00,45.0,-99.9,29.84,NW,320,14.0,21.0,-999,-99.99,,,-99.99,,2013-10-22 19:22:00,
2013-10-22 14:32:00,45.0,-99.9,29.84,NW,320,14.0,21.0,-999,-99.99,,,-99.99,,2013-10-22 19:32:00,
2013-10-22 14:40:00,46.0,-99.9,29.85,NNW,330,14.0,18.0,-999,-99.99,,,-99.99,,2013-10-22 19:40:00,
2013-10-22 15:11:00,46.0,-99.9,29.85,NNW,330,14.0,18.0,-999,-99.99,,,-99.99,,2013-10-22 20:11:00,
2013-10-22 15:22:00,46.0,-99.9,29.85,NNW,330,14.0,18.0,-999,-99.99,,,-99.99,,2013-10-22 20:22:00,
2013-10-22 15:32:00,46.0,-99.9,29.85,NNW,330,14.0,18.0,-999,-99.99,,,-99.99,,2013-10-22 20:32:00,
2013-10-22 15:53:00,44.0,-99.9,29.85,NNW,340,21.0,29.0,-999,-99.99,,,-99.99,,2013-10-22 20:53:00,
2013-10-22 16:23:00,44.0,-99.9,29.85,NNW,340,21.0,29.0,-999,-99.99,,,-99.99,,2013-10-22 21:23:00,
2013-10-22 16:34:00,44.0,-99.9,29.85,NNW,340,21.0,29.0,-999,-99.99,,,-99.99,,2013-10-22 21:34:00,
2013-10-22 16:44:00,44.0,-99.9,29.85,NNW,340,21.0,29.0,-999,-99.99,,,-99.99,,2013-10-22 21:44:00,
2013-10-22 17:14:00,43.0,-99.9,29.86,NNW,340,24.0,30.0,-999,-99.99,,,-99.99,,2013-10-22 22:14:00,
2013-10-22 17:44:00,42.0,-99.9,29.88,NNW,330,20.0,26.0,-999,-99.99,,,-99.99,,2013-10-22 22:44:00,
2013-10-22 17:54:00,42.0,-99.9,29.88,NNW,330,20.0,26.0,-999,-99.99,,,-99.99,,2013-10-22 22:54:00,
2013-10-22 18:23:00,41.0,-99.9,29.89,NNW,330,21.0,29.0,-999,-99.99,,,-99.99,,2013-10-22 23:23:00,
2013-10-22 18:34:00,41.0,-99.9,29.89,NNW,330,21.0,29.0,-999,-99.99,,,-99.99,,2013-10-22 23:34:00,
2013-10-22 18:40:00,42.0,-99.9,29.90,NNW,340,21.0,25.0,-999,-99.99,,,-99.99,,2013-10-22 23:40:00,
2013-10-22 18:43:00,41.0,-99.9,29.89,NNW,330,21.0,29.0,-999,-99.99,,,-99.99,,2013-10-22 23:43:00,
2013-10-22 19:11:00,42.0,-99.9,29.90,NNW,340,21.0,25.0,-999,-99.99,,,-99.99,,2013-10-23 00:11:00,
2013-10-22 19:22:00,42.0,-99.9,29.90,NNW,340,21.0,25.0,-999,-99.99,,,-99.99,,2013-10-23 00:22:00,
2013-10-22 19:32:00,42.0,-99.9,29.90,NNW,340,21.0,25.0,-999,-99.99,,,-99.99,,2013-10-23 00:32:00,
2013-10-22 19:40:00,42.0,-99.9,29.90,NNW,340,20.0,24.0,-999,-99.99,,,-99.99,,2013-10-23 00:40:00,
2013-10-22 20:12:00,42.0,-99.9,29.90,NNW,340,20.0,24.0,-999,-99.99,,,-99.99,,2013-10-23 01:12:00,
2013-10-22 20:23:00,42.0,-99.9,29.90,NNW,340,20.0,24.0,-999,-99.99,,,-99.99,,2013-10-23 01:23:00,
2013-10-22 20:32:00,42.0,-99.9,29.90,NNW,340,20.0,24.0,-999,-99.99,,,-99.99,,2013-10-23 01:32:00,
2013-10-22 20:40:00,41.0,-99.9,29.91,NNW,330,20.0,28.0,-999,-99.99,,,-99.99,,2013-10-23 01:40:00,
2013-10-22 21:12:00,41.0,-99.9,29.91,NNW,330,20.0,28.0,-999,-99.99,,,-99.99,,2013-10-23 02:12:00,
2013-10-22 21:22:00,41.0,-99.9,29.91,NNW,330,20.0,28.0,-999,-99.99,,,-99.99,,2013-10-23 02:22:00,
2013-10-22 21:32:00,41.0,-99.9,29.91,NNW,330,20.0,28.0,-999,-99.99,,,-99.99,,2013-10-23 02:32:00,
2013-10-22 22:22:00,41.0,-99.9,29.91,NW,320,22.0,29.0,-999,-99.99,,,-99.99,,2013-10-23 03:22:00,
2013-10-22 22:34:00,41.0,-99.9,29.91,NW,320,22.0,29.0,-999,-99.99,,,-99.99,,2013-10-23 03:34:00,
2013-10-22 22:40:00,40.0,-99.9,29.91,NW,320,18.0,28.0,-999,-99.99,,,-99.99,,2013-10-23 03:40:00,
2013-10-22 22:44:00,41.0,-99.9,29.91,NW,320,22.0,29.0,-999,-99.99,,,-99.99,,2013-10-23 03:44:00,
2013-10-22 23:14:00,40.0,-99.9,29.91,NW,320,18.0,28.0,-999,-99.99,,,-99.99,,2013-10-23 04:14:00,
2013-10-22 23:24:00,40.0,-99.9,29.91,NW,320,18.0,28.0,-999,-99.99,,,-99.99,,2013-10-23 04:24:00,
2013-10-22 23:34:00,40.0,-99.9,29.91,NW,320,18.0,28.0,-999,-99.99,,,-99.99,,2013-10-23 04:34:00,
2013-10-22 23:40:00,41.0,-99.9,29.90,NNW,330,18.0,25.0,-999,-99.99,,,-99.99,,2013-10-23 04:40:00,